Location: Unspecified
(50.7693°N, 0.0000°E)
Time: 04:36:01
(UTC+00:00)

Transit 2A Rocket - Visible Passes

Search period start: 23 October 2019 00:00
Search period end: 02 November 2019 00:00
Orbit: 594 x 909 km, 66.7° (Epoch: 22 October)

Date Brightness Start Highest point End Pass type
(mag) Time Alt. Az. Time Alt. Az. Time Alt. Az.
23 Oct 7.3 03:08:09 14° SE 03:09:41 16° ESE 03:12:33 10° ENE visible
23 Oct 4.7 04:48:07 19° SW 04:51:42 87° NW 04:56:18 10° NE visible
24 Oct 5.2 04:07:37 39° S 04:09:12 58° ESE 04:13:44 10° NE visible
24 Oct 5.6 05:47:47 10° W 05:52:01 29° NW 05:56:00 10° NNE visible
25 Oct 6.0 03:26:57 35° ESE 03:26:57 35° ESE 03:31:01 10° NE visible
25 Oct 5.1 05:06:54 24° W 05:09:18 42° NW 05:13:37 10° NNE visible
26 Oct 7.2 02:46:08 18° E 02:46:08 18° E 02:48:02 10° ENE visible
26 Oct 4.6 04:26:05 59° W 04:26:40 65° NW 04:31:12 10° NNE visible
26 Oct 6.3 06:06:48 10° WNW 06:10:01 18° NNW 06:13:07 10° NNE visible
27 Oct 5.3 03:45:09 54° NE 03:45:09 54° NE 03:48:41 10° NE visible
27 Oct 5.9 05:25:06 18° WNW 05:27:08 24° NW 05:30:47 10° NNE visible
28 Oct 6.8 03:04:10 24° ENE 03:04:10 24° ENE 03:06:04 10° NE visible
28 Oct 5.5 04:44:05 33° NW 04:44:21 33° NW 04:48:26 10° NNE visible
29 Oct 7.8 02:23:04 11° ENE 02:23:04 11° ENE 02:23:17 10° NE visible
29 Oct 5.6 04:03:00 37° N 04:03:00 37° N 04:06:03 10° NNE visible
29 Oct 6.5 05:42:55 11° NW 05:45:14 15° NNW 05:47:52 10° NNE visible
30 Oct 6.7 03:21:51 23° NNE 03:21:51 23° NNE 03:23:36 10° NE visible
30 Oct 6.2 05:01:46 19° NW 05:02:17 20° NNW 05:05:34 10° NNE visible
31 Oct 7.6 02:40:40 12° NE 02:40:40 12° NE 02:41:04 10° NE visible
31 Oct 6.2 04:20:35 24° NNW 04:20:35 24° NNW 04:23:14 10° NNE visible
31 Oct 6.8 06:02:06 10° NNW 06:03:31 11° NNW 06:04:55 10° N visible
01 Nov 6.7 03:39:21 20° NNE 03:39:21 20° NNE 03:40:52 10° NNE visible
01 Nov 6.6 05:19:16 12° NW 05:20:28 13° NNW 05:22:37 10° N visible
